sat.trackr.live / text

‹ back to catalog

STARLINK-37243

NORAD 68608 · 2026-073G

PAYLOAD ACTIVE UNKNOWN

§ Identity

Operator
Country
US
Launch date
2026-04-07
Launch site
AFWTR
Launch vehicle
Mass (kg)
RCS (m²)

Purposes: comms

External: N2YO · Heavens-Above · Gunter

§ Orbital elements

Epoch: 2026-09-19T19:02:27.308832Z

Period
93.91 min
Inclination
97.2850°
Eccentricity
0.0001954
Mean motion
15.33451147 rev/d
Perigee alt
464.2 km
Apogee alt
466.9 km
Semi-major
6,843.7 km
B*
3.7147e-4
RAAN
100.8428°
Arg perigee
89.9742°
Mean anomaly
270.1724°
Rev number
2,563

§ Raw data

STARLINK-372431 68608U 26073G   26262.79337163  .00011939  00000+0  37147-3 0  99902 68608  97.2850 100.8428 0001954  89.9742 270.1724 15.33451147 25635

JSON: /api/v1/satellites/68608 · /tle

For live sub-satellite position, see the globe view (requires WebGL).

§ Visibility from observer

Set your observer location to see the next 7 days of passes ≥ 10°. The values pass through the URL so the page stays shareable.

No JS? Fill the form by hand. The geolocation button needs JavaScript.